Home > Time Zones > World Clock > Weather > Aktau > Past weeks

Flag for Kazakhstan Weather past 2 weeks in Aktau, Kazakhstan

Now
61 °F

Passing clouds.


Feels Like: 61 °F
Forecast: 60 / 76 °F
Wind: 17 mph from East

Location: Aktau

Current Time: Sep 21, 2014 at 5:32:00 AM

Latest Report: Sep 21, 2014 at 5:00 AM


Visibility: N/A

Pressure: 29.98 "Hg

Humidity: 20%

Dew point: 19 °F

Location of AktauLocation

Historic Weather in Aktau — Graph

°F

Aktau temperature yesterday

Maximum temperature yesterday: 73 °F (at 4:00 PM)
Minimum temperature yesterday: 59 °F (at 3:30 AM)
Average temperature yesterday: 64 °F

Past Weeks' High & Low Weather Summary

 TemperatureHumidityPressure
High95 °F (Sep 9, 2:00 PM)88% (Sep 6, 7:30 AM)30.36 "Hg (Sep 6, 7:30 AM)
Low41 °F (Sep 18, 7:00 AM)4% (Sep 12, 2:30 PM)29.77 "Hg (Sep 16, 3:00 PM)
Average71 °F24%29.98 "Hg
* Reported Sep 6 4:00 AM — Sep 21 4:30 AM, Aktau, Weather by CustomWeather, © 2014

Note: Actual official high and low records may vary slightly from our data, if they occured in-between our weather recording intervals... More about our weather records

Advertising

Aktau weather history for previous 24 hours

 ConditionsComfort  
Time TempWeatherWind HumidityBarometerVisibility
4:30 AM
Sep 21
61 °FPartly cloudy.17 mph20%29.98 "HgN/A
4:00 AM61 °FPassing clouds.20 mph20%29.98 "HgN/A
3:30 AM61 °FPassing clouds.20 mph22%30.01 "HgN/A
3:00 AM61 °FPassing clouds.20 mph22%30.01 "HgN/A
2:30 AM61 °FOvercast.22 mph22%30.01 "HgN/A
2:00 AM61 °FOvercast.20 mph25%30.01 "HgN/A
1:30 AM61 °FOvercast.17 mph23%30.04 "HgN/A
1:00 AM61 °FOvercast.20 mph23%30.01 "HgN/A
12:30 AM61 °FOvercast.17 mph29%30.04 "HgN/A
12:00 AM61 °FMostly cloudy.17 mph29%30.04 "HgN/A
11:30 PM
Sep 20
61 °FThundershowers. Mostly cloudy.17 mph31%30.04 "HgN/A
11:00 PM61 °FMostly cloudy.15 mph31%30.04 "HgN/A
10:30 PM63 °FMostly cloudy.15 mph30%30.07 "HgN/A
6:30 PM72 °FMore clouds than sun.17 mph11%30.01 "HgN/A
6:00 PM72 °FMore clouds than sun.15 mph12%30.01 "HgN/A
5:30 PM70 °FSprinkles. Broken clouds.17 mph20%30.04 "HgN/A
5:00 PM73 °FBroken clouds.20 mph9%30.04 "HgN/A
4:30 PM73 °FSunny.20 mph9%30.04 "Hg10 mi
4:00 PM73 °FSunny.20 mph9%30.04 "Hg10 mi
3:30 PM72 °FSunny.20 mph10%30.07 "Hg10 mi
3:00 PM72 °FSunny.17 mph11%30.07 "Hg10 mi
2:30 PM72 °FSunny.17 mph11%30.09 "Hg10 mi
2:00 PM72 °FSunny.17 mph10%30.09 "Hg10 mi
1:30 PM70 °FMore clouds than sun.22 mph11%30.09 "HgN/A
1:00 PM68 °FMore clouds than sun.20 mph11%30.12 "HgN/A
12:30 PM68 °FSunny.22 mph10%30.12 "Hg10 mi
12:00 PM66 °FSunny.20 mph12%30.15 "Hg10 mi
11:30 AM66 °FSunny.20 mph12%30.15 "Hg10 mi
11:00 AM64 °FSunny.22 mph13%30.15 "Hg10 mi
10:30 AM63 °FSunny.20 mph13%30.15 "Hg10 mi
10:00 AM61 °FSunny.22 mph15%30.18 "Hg10 mi
9:30 AM61 °FSunny.20 mph15%30.18 "Hg10 mi
9:00 AM61 °FClear.20 mph15%30.18 "Hg10 mi
8:30 AM59 °FClear.15 mph17%30.18 "Hg10 mi
8:00 AM59 °FClear.13 mph18%30.18 "Hg10 mi
7:30 AM59 °FClear.13 mph18%30.18 "Hg10 mi
6:30 AM59 °FClear.13 mph20%30.18 "Hg10 mi
6:00 AM59 °FClear.13 mph20%30.18 "Hg10 mi
5:30 AM59 °FClear.13 mph20%30.18 "Hg10 mi
5:00 AM59 °FClear.15 mph21%30.18 "Hg10 mi
Weather by CustomWeather, © 2014

See weather overviewHow to use our weather pages